Location: Pl�tzky
(52.0521°N, 11.8020°E)
Time: 13:41:48
(UTC+00:00)

H-2A R/B - Pass Details

Date: 22 November 2019
Orbit: 577 x 656 km, 98.5° (Epoch: 13 December)

Event Time Altitude Azimuth Distance (km) Brightness Sun altitude
Rises 15:50:01 0° 6° (N) 2,885 5.2 -5.8°
Reaches altitude 10° 15:52:35 10° 351° (N) 1,961 4.5 -6.1°
Maximum altitude 15:55:51 22° 301° (WNW) 1,320 4.2 -6.6°
Drops below altitude 10° 15:59:03 10° 250° (WSW) 1,918 6.4 -7.1°
Sets 16:01:32 0° 235° (SW) 2,804 7.5 -7.4°
